User: anonymous   Login
Location: New Plymouth
(39.0670°S, 174.0830°E)
Time: 12:09:45
(UTC+12:00)
Language:

UNISAT 6 - Orbit

View from above orbital plane
View from above orbital plane
View from above satellite
View from above satellite

Ground track
Ground track

The orbit data is extracted from the following two-line orbital elements,

1 40012U 14033C   19236.20234041  .00000084  00000-0  20090-4 0  9992
2 40012  97.7490  99.9204 0056952 242.7545 116.7855 14.73997220278480
Epoch (UTC): 24 August 2019 04:51:22
Eccentricity: 0.0056952
inclination: 97.7490°
perigee height: 608 km
apogee height: 688 km
right ascension of ascending node: 99.9204°
argument of perigee: 242.7545°
revolutions per day: 14.73997220
mean anomaly at epoch: 116.7855°
orbit number at epoch: 27848

The dashed part of the orbit path shows where the satellite is in the earth's shadow,  

DLR